www.pogodaiklimat.ru
ПОГОДА в Хайгейте
Время
и дата
08:35 20.05
08:55 20.05
09:15 20.05
09:35 20.05
09:55 20.05
10:15 20.05
10:35 20.05
10:55 20.05
11:15 20.05
11:35 20.05
11:55 20.05
12:15 20.05
12:35 20.05
12:55 20.05
13:15 20.05
13:35 20.05
13:55 20.05
14:15 20.05
14:35 20.05
14:55 20.05
15:15 20.05
15:35 20.05
15:55 20.05
16:15 20.05
16:35 20.05
16:55 20.05
17:15 20.05
17:35 20.05
17:55 20.05
18:15 20.05
18:35 20.05
18:55 20.05
19:15 20.05
19:35 20.05
19:55 20.05
20:15 20.05
20:35 20.05
20:55 20.05
21:15 20.05
21:35 20.05
21:55 20.05
22:15 20.05
22:35 20.05
22:55 20.05
23:15 20.05
23:35 20.05
23:55 20.05
00:15 21.05
Ветер
(напр.,м/с)
Видим. Явления Облачность Т
(С)
Тd
(С)
f
(%)
Тe
(С)
Тes
(С)
Комфортность P
(гПа)
Po
(гПа)
Тmin
(С)
Tmax
(С)
R
(мм)
R24
(мм)
S
(см)
Ю 3 16 км ясно +21.9 +14.5 63 +25 +32 комфорт 1006.8
Ю 2 16 км ясно +22.7 +14.7 61 +26 +34 жарко 1006.5
Ю 3 16 км ясно +23.0 +14.7 60 +27 +37 душно 1006.8
ЮЗ 3 16 км ясно +23.9 +15.4 59 +27 +37 жарко 1006.8
ЮЗ 3 16 км ясно +24.0 +15.2 58 +27 +37 жарко 1006.8
Ю 3 16 км ясно +23.9 +14.9 57 +27 +39 жарко 1006.8
Ю 3 16 км ясно +24.9 +15.4 56 +28 +41 жарко 1006.5
Ю 3 16 км ясно +25.2 +15.2 54 +28 +41 жарко 1006.5
Ю 3 16 км ясно +26.6 +15.0 49 +29 +44 жарко 1006.5
ЮЗ 3 16 км ясно +27.0 +14.8 47 +30 +44 душно 1006.2
ЮЗ 2 16 км ясно +27.0 +14.9 47 +30 +47 душно 1005.8
ЮЗ 3 16 км ясно +27.3 +15.5 48 +30 +45 душно 1005.8
Ю 3 16 км ясно +27.4 +15.1 47 +30 +45 жарко 1005.5
ЮЗ 3 16 км ясно +28.0 +14.8 44 +30 +46 жарко 1005.2 +19.2 +28.2
ЮЗ 2 16 км ясно +28.9 +15.4 44 +32 +49 душно 1004.8
Ю 3 16 км ясно +29.2 +14.8 42 +32 +46 душно 1004.8
ЮЗ 2 16 км ясно +29.5 +14.7 41 +32 +49 душно 1004.5
ЮЗ 2 16 км ясно +29.2 +15.6 44 +32 +47 душно 1004.2
З 3 16 км ясно +29.4 +15.9 44 +32 +45 душно 1004.2
З 3 16 км ясно +28.6 +15.7 46 +32 +44 душно 1004.2
штиль 0 16 км ясно +28.3 +15.9 47 +31 +46 душно 1004.2
ЮЗ 3 16 км ясно +28.1 +15.3 46 +31 +40 душно 1003.8
ЮЗ 2 16 км ясно +27.6 +15.2 47 +30 +41 жарко 1003.8
ЮЗ 2 16 км ясно +28.5 +14.9 44 +31 +38 душно 1003.8
З 2 16 км ясно +28.0 +15.2 46 +31 +38 душно 1003.5
ЮЗ 2 16 км ясно +28.0 +14.9 45 +31 +38 душно 1003.5
штиль 0 16 км ясно +28.5 +14.8 43 +31 +36 душно 1003.1
ЮЗ 2 16 км ясно +28.2 +15.0 45 +31 +34 душно 1003.1
штиль 0 16 км ясно +27.6 +14.9 46 +30 +35 жарко 1003.1
штиль 0 16 км 8/8 1800 м +27.0 +15.0 48 +30 +30 душно 1003.1
штиль 0 16 км 10/10 1800 м +26.5 +15.2 50 +29 +29 жарко 1003.1
штиль 0 16 км 10/10 1800 м +25.4 +16.1 56 +29 +29 душно 1003.5 +25.4 +29.8
штиль 0 16 км 10/10 1800 м +25.3 +15.4 54 +28 +28 жарко 1003.5
штиль 0 16 км 10/10 1800 м +24.3 +16.1 60 +28 +28 душно 1003.5
штиль 0 16 км 10/0 2100 m
[Ac]
+24.0 +15.2 58 +27 +27 жарко 1003.8
штиль 0 16 км 5/5 1950 m
[Ac]
+22.7 +17.9 74 +28 +28 душно 1003.8
штиль 0 16 км ясно +21.0 +18.8 87 +25 +25 комфорт 1003.5
штиль 0 16 км 5/0 2100 m
[Ac]
+21.1 +18.0 82 +25 +25 комфорт 1003.8
штиль 0 16 км 8/0 2100 m
[Ac]
+21.1 +18.1 83 +25 +25 комфорт 1003.8
штиль 0 16 км 8/0 2100 m
[Ac]
+20.8 +18.1 85 +25 +25 комфорт 1003.8
штиль 0 11 км 5/0 2250 m
[Ac]
+20.4 +18.3 88 +24 +24 комфорт 1003.8
штиль 0 16 км ясно +19.8 +18.7 93 +22 +22 комфорт 1003.8
штиль 0 16 км ясно +19.1 +18.5 96 +21 +21 комфорт 1003.8
штиль 0 16 км ясно +18.5 +17.8 96 +19 +19 1003.5
штиль 0 16 км ясно +19.5 +17.5 88 +22 +22 комфорт 1003.5
штиль 0 16 км ясно +18.0 +17.5 97 +18 +18 1003.1
штиль 0 16 км ясно +17.6 +17.0 96 +18 +18 1003.1
Ю 2 16 км ясно +18.0 +17.4 96 +19 +19 1003.1
Местоположение метеостанции Franklin County State Airport: широта 44.9403 долгота -73.0975 высота над уровнем моря 69 м.
В архиве по умолчанию представлена погода в Хайгейте за последние 1-2 суток. Обновление информации о фактической погоде в базе происходит ежечасно! Архивные данные за месяц целиком и за предыдущие месяцы Вы можете получить, выбрав интересующий диапазон дат из раскрывающегося списка и нажав кнопку "Ввод!".
Внимание! Архив погоды МЕТАР в базе сайта по станциям, не включенным в климатический монитор, хранится не более 60 дней. Нет смысла пытаться выбрать более раннюю дату.
*Определитесь, кто Вы:
Внимание! Время в таблицах - местное (без учета летнего времени). Для получения всемирного времени необходимо вычесть поправку, которая равна -5 ч.
Смотрите также архив погоды в соседних городах и на ближайших метеорологических станциях:
Партнеры нашего сайта:      
Пояснения к столбцам:
  • Ветер - указаны скорость ветра в м/с - средняя за 10 мин, порывы в срок и между сроками (в фигурных скобках) и направление, откуда дует ветер: С - северный,
  • СВ - северо-восточный, В - восточный, ЮВ - юго-восточный, Ю - южный, ЮЗ - юго-западный, З - западный, СЗ - северо-западный.
  • Видимость - горизонтальная дальность видимости в метрах или километрах. При видимости от 1 до 10 км при отсутствии осадков обычно наблюдается дымка, при ухудшении видимости до 1 км и менее - туман. В сухую погоду видимость может ухудшаться дымом, пылью или мглою.
  • Явления - указаны атмосферные явления, наблюдавшиеся в срок или в последний час перед сроком; фигурными скобками обозначены явления, наблюдавшиеся между сроками (за 1-3 часа до срока); квадратными скобками обозначены град или гололедные отложения с указанием их диаметра в мм.
  • Облачность - указаны через наклонную черту общая и нижняя облачность в баллах и высота нижней границы облаков в метрах; квадратными скобками обозначены формы облаков: Ci - перистые, Cs - перисто-слоистые, Cc - перисто-кучевые, Ac - высококучевые, As - высокослоистые, Sc - слоисто-кучевые, Ns - слоисто-дождевые, Cu - кучевые, Cb - кучево-дождевые. Подробнее классификацию облаков см. в Атласе облаков (PDF).
  • T - Температура воздуха - температура, измеренная на высоте 2 м над землей.
  • Td - Температура точки росы - температура, при понижении до которой содержащийся в воздухе водяной пар достигнет насыщения.
  • f - Относительная влажность воздуха - влажноcть воздуха, измеренная на высоте 2 м над землей.
  • Te - Эффективная температура - температура, которую ощущает одетый по сезону человек в тени. Характеристика душности погоды. При расчете учитывается влияние влажности воздуха и скорости ветра на теплоощущения человека.
  • Tes - Эффективная температура на солнце - температура, которую ощущает человек, с поправкой на солнечный нагрев. Характеристика знойности погоды. Зависит от высоты солнца над горизонтом, облачности и скорости ветра. Ночью, в пасмурную погоду, а также при ветре 12 м/с и более поправка равна нулю.
  • P - Атмосферное давление - приведенное к уровню моря атмосферное давление.
  • Po - Атмосферное давление - измеренное на уровне метеостанции атмосферное давление.
  • Tmin - Минимальная температура - минимум температуры воздуха на высоте 2 м над землей.
  • Tmax - Максимальная температура - максимум температуры воздуха на высоте 2 м над землей.
  • R - Количество осадков - Количество выпавших осадков за период времени, мм. При наведении курсора мыши на число - период времени, за который выпало указанное количество осадков.
  • R24 - Количество осадков - Количество выпавших осадков за 24 часа, мм.
  • S - Снежный покров - Высота снежного покрова, см. При наведении курсора мыши на число - состояние снежного покрова и степень покрытия местности в баллах.